• Processing (Info)

  • MPEC 2017-U12 : 2017 TE5

    The following Minor Planet Electronic Circular may be linked-to from your own Web pages, but must not otherwise be redistributed electronically.

    A form allowing access to any MPEC is at the bottom of this page.


    Read MPEC 2017-U11 Read MPEC 2017-U13


    M.P.E.C. 2017-U12                                Issued 2017 Oct. 16, 01:18 UT
    
         The Minor Planet Electronic Circulars contain information on unusual
             minor planets and routine data on comets.  They are published
        on behalf of Division F of the International Astronomical Union by the
              Minor Planet Center, Smithsonian Astrophysical Observatory,
                              Cambridge, MA 02138, U.S.A.
    
                 Prepared using the Tamkin Foundation Computer Network
    
                                  MPC@CFA.HARVARD.EDU
                URL https://www.minorplanetcenter.net/    ISSN 1523-6714
    
                                       2017 TE5
    
    Observations:
         K17T05E* C2017 10 14.23787 00 42 04.94 -24 35 52.9          19.1 GUEU012703
         K17T05E  C2017 10 14.24783 00 42 03.73 -24 34 11.0          18.7 GUEU012703
         K17T05E  C2017 10 14.25281 00 42 03.11 -24 33 19.4          18.7 GUEU012703
         K17T05E  C2017 10 14.31608 00 41 54.93 -24 22 02.4          18.1 GUEU012703
         K17T05E  C2017 10 14.31648 00 41 54.92 -24 21 54.9          18.5 GUEU012703
         K17T05E  C2017 10 14.31688 00 41 54.83 -24 21 50.4          17.8 GUEU012703
         K17T05E  C2017 10 14.35941 00 41 49.79 -24 13 45.6          19.1 GUEU012G96
         K17T05E  C2017 10 14.35982 00 41 49.74 -24 13 40.5          18.9 GUEU012G96
         K17T05E  C2017 10 14.36022 00 41 49.69 -24 13 35.4          19.1 GUEU012G96
         K17T05E  C2017 10 14.36063 00 41 49.64 -24 13 30.7          18.9 GUEU012G96
         K17T05E KC2017 10 14.89519 00 42 36.73 -22 14 42.1          18.6  UEU012104
         K17T05E KC2017 10 14.89797 00 42 36.41 -22 13 57.7          18.4  UEU012104
         K17T05E KC2017 10 14.90075 00 42 36.11 -22 13 13.0          18.5  UEU012104
         K17T05E KC2017 10 14.90354 00 42 35.82 -22 12 28.5          18.4  UEU012104
         K17T05E KC2017 10 14.93173 00 42 28.41 -22 04 59.9          18.5  oEU012K88
         K17T05E KC2017 10 14.93422 00 42 28.12 -22 04 18.3          18.0  oEU012K88
         K17T05E KC2017 10 14.93669 00 42 27.87 -22 03 37.1          18.0  oEU012K88
         K17T05E  C2017 10 15.82557 00 44 10.23 -15 51 58.8                qEU012246
         K17T05E  C2017 10 15.82636 00 44 10.21 -15 51 29.5                qEU012246
         K17T05E  C2017 10 15.82646 00 44 10.18 -15 51 25.0                qEU012246
         K17T05E  C2017 10 15.82657 00 44 10.20 -15 51 21.4                qEU012246
         K17T05E  C2017 10 15.82667 00 44 10.17 -15 51 18.2                qEU012246
         K17T05E  C2017 10 15.82678 00 44 10.18 -15 51 13.9                qEU012246
         K17T05E  C2017 10 15.82720 00 44 10.16 -15 50 58.2          17.6 RqEU012246
         K17T05E  C2017 10 15.82731 00 44 10.16 -15 50 54.9                qEU012246
         K17T05E  C2017 10 15.82741 00 44 10.16 -15 50 50.6                qEU012246
         K17T05E KC2017 10 15.86503 00 44 04.07 -15 27 01.5          17.2  oEU012K88
         K17T05E KC2017 10 15.86599900 44 07.17 -15 26 37.2          16.8 VUEU012G34
         K17T05E KC2017 10 15.86746 00 44 03.82 -15 25 26.1          17.1  oEU012K88
         K17T05E KC2017 10 15.86807200 44 07.00 -15 25 16.0          16.5 VUEU012G34
         K17T05E KC2017 10 15.86936200 44 07.08 -15 24 24.6          17.3 VUEU012G34
         K17T05E KC2017 10 15.86990 00 44 03.58 -15 23 51.0          17.1  oEU012K88
         K17T05E KC2017 10 15.87065200 44 06.79 -15 23 32.6          16.6 VUEU012G34
         K17T05E KC2017 10 15.87194100 44 06.68 -15 22 45.1          16.1 VUEU012G34
         K17T05E KC2017 10 15.87655 00 44 09.84 -15 18 52.9          17.4 RqEU012160
         K17T05E KC2017 10 15.87816 00 44 09.66 -15 17 49.3          17.5 RqEU012160
         K17T05E KC2017 10 15.87996 00 44 09.49 -15 16 38.4          17.4 RqEU012160
         K17T05E SC2017 10 15.88171 00 44 14.53 -15 16 09.6                UEU012J95
         K17T05E KC2017 10 15.88194 00 44 09.23 -15 15 19.6          17.1 RqEU012160
         K17T05E KC2017 10 15.88502600 44 05.58 -15 14 06.9          17.1 VUEU012G34
         K17T05E bC2017 10 15.88590 00 44 14.25 -15 13 23.3                UEU012J95
         K17T05E KC2017 10 15.88744500 44 05.41 -15 12 30.2          17.4 VUEU012G34
         K17T05E KC2017 10 15.88982000 44 05.12 -15 10 54.9          17.6 VUEU012G34
         K17T05E KC2017 10 15.89009 00 44 14.03 -15 10 35.9                UEU012J95
         K17T05E KC2017 10 15.89209900 44 04.95 -15 09 24.2          17.3 VUEU012G34
         K17T05E KC2017 10 15.89422900 44 04.79 -15 07 57.8          17.3 VUEU012G34
         K17T05E KC2017 10 15.89454 00 44 13.80 -15 07 38.0          17.8 GUEU012J95
         K17T05E KC2017 10 15.89663700 44 04.58 -15 06 21.4          15.7 VUEU012G34
         K17T05E KC2017 10 15.89901200 44 04.34 -15 04 45.2          17.5 VUEU012G34
         K17T05E KC2017 10 15.93101 00 44 01.74 -14 42 50.4          17.3 RuEU012B15
         K17T05E KC2017 10 15.93238 00 44 01.56 -14 41 50.4          17.2 RuEU012B15
         K17T05E KC2017 10 15.93577200 44 26.601-14 35 40.53         16.9 GUEU012J04
         K17T05E KC2017 10 15.93629800 44 26.530-14 35 18.16         16.8 GUEU012J04
         K17T05E KC2017 10 15.93682100 44 26.459-14 34 56.15         16.9 GUEU012J04
         K17T05E  C2017 10 15.94145 00 43 59.73 -14 35 02.9                qEU012046
         K17T05E  C2017 10 15.94288 00 43 59.54 -14 34 00.7                qEU012046
         K17T05E  C2017 10 15.94355 00 43 59.41 -14 33 34.1                qEU012046
         K17T05E  C2017 10 15.94466 00 43 59.32 -14 32 43.8                qEU012046
         K17T05E  C2017 10 15.94497 00 43 59.29 -14 32 29.0                qEU012046
         K17T05E  C2017 10 15.94534 00 43 59.33 -14 32 13.5                qEU012046
    
    Observer details:
    046 Klet.  Observers M. Janda, M. Tichy.  Measurer M. Tichy.  0.57-m f/5.2
        reflector + CCD.
    104 San Marcello Pistoiese.  Observers P. Bacci, M. Maestripieri, M. D. Grazia,
        N. Fie.  Measurers P. Bacci, L. Tesi, G. Fagioli.  0.60-m reflector + CCD.
    160 Castelmartini.  Observers M. Jaeger, E. Prosperi, S. Prosperi, W. Vollmann.
        Measurer E. Prosperi.  0.35-m f/10 Schmidt-Cassegrain + CCD.
    246 Klet Observatory-KLENOT.  Observers M. Tichy, J. Ticha.  Measurer M. Tichy.
        1.06-m KLENOT Telescope + CCD.
    703 Catalina Sky Survey.  Observer R. G. Matheny.  Measurers E. J. Christensen,
        D. C. Fuls, A. R. Gibbs, A. D. Grauer, J. A. Johnson, R. A. Kowalski,
        S. M. Larson, G. J. Leonard, R. G. Matheny, R. L. Seaman, F. C. Shelly.
        0.68-m Schmidt + 10K CCD.
    B15 Inastars Observatory, Potsdam (since 2006).  Observer B. Thinius.  0.36-m
        f/5.6 Schmidt-Cassegrain + CCD.
    G34 Oberfrauendorf.  Observer T. Felber.  0.25-m f/10 Schmidt-Cassegrain + CCD
        + f/6.3 focal reducer.
    G96 Mt. Lemmon Survey.  Observer J. A. Johnson.  Measurers E. J. Christensen,
        D. C. Fuls, A. R. Gibbs, A. D. Grauer, J. A. Johnson, R. A. Kowalski,
        S. M. Larson, G. J. Leonard, R. G. Matheny, R. L. Seaman, F. C. Shelly.
        1.5-m reflector + 10K CCD.
    J04 ESA Optical Ground Station, Tenerife.  Observer P. Ruiz.  Measurers
        M. Micheli, D. Koschny, M. Busch, A. Knoefel, E. Schwab.  1.0-m f/4.4
        reflector + CCD.
    J95 Great Shefford.  Observer P. Birtwhistle.  0.40-m f/6.0 Schmidt-Cassegrain
        + CCD.
    K88 GINOP-KHK, Piszkesteto.  Observer K. Sarneczky.  0.60-m Schmidt + CCD.
    
    Orbital elements:
    2017 TE5                                                 Earth MOID = 0.0036 AU
    Epoch 2017 Sept. 4.0 TT = JDT 2458000.5                 MPC
    M 330.07089              (2000.0)            P               Q
    n   0.40106508     Peri.   40.94353     +0.43830390     -0.89606160
    a   1.8210679      Node    23.32440     +0.77130681     +0.33471917
    e   0.4942752      Incl.   10.24947     +0.46149269     +0.29161051
    P   2.46           H   26.0           G   0.15           U   6
    Residuals in seconds of arc
    171014 703  0.7-  0.2-    171015 246  0.1-  0.4+    171015 J95  0.5-  0.3-
    171014 703  0.2-  0.1-    171015 246  0.4-  0.1-    171015 G34  0.3+  0.8+
    171014 703  0.1-  0.1+    171015 246  0.2-  0.1+    171015 G34  0.9-  0.9+
    171014 703 (0.2-  2.7-)   171015 246  0.1-  0.2+    171015 J95  0.1-  0.3+
    171014 703  0.4+  0.4+    171015 246  0.0   0.6-    171015 G34  0.4-  0.1+
    171014 703  0.2-  0.4+    171015 246  0.0   0.0     171015 G34  0.1+  0.7+
    171014 G96  0.4+  0.5-    171015 K88  0.5-  0.6-    171015 J95  0.6+  0.1+
    171014 G96  0.3+  0.2-    171015 G34  0.1+  0.3-    171015 G34  0.2+  0.2-
    171014 G96  0.2+  0.2+    171015 K88  0.6-  0.0     171015 G34  0.1-  0.2-
    171014 G96  0.2+  0.1+    171015 G34  0.0   0.1+    171015 B15  0.3-  1.6-
    171014 104  0.1-  0.2-    171015 G34 (2.6+  1.2+)   171015 B15  1.2-  0.4+
    171014 104  0.3-  0.2-    171015 K88  0.6-  0.4-    171015 J04  0.6-  0.4-
    171014 104  0.2-  0.0     171015 G34 (0.1-  2.7+)   171015 J04  0.5-  0.2-
    171014 104  0.1+  0.3-    171015 G34  0.2-  0.3-    171015 J04  0.4-  0.3-
    171014 K88  0.0   0.1+    171015 160  0.1-  0.0     171015 046  0.7+  1.3-
    171014 K88  0.4-  0.0     171015 160  0.2-  0.1+    171015 046  0.2+  0.5-
    171014 K88  0.3-  0.3-    171015 160  0.2+  0.1-    171015 046 (0.6-  2.7-)
    171015 246  0.4-  0.0     171015 J95  0.2+  0.7-    171015 046  0.2-  0.2-
    171015 246  0.1-  0.0     171015 160  0.4-  0.2+    171015 046  0.2-  1.3+
    171015 246  0.4-  0.8+    171015 G34  0.3-  0.6+    171015 046  1.0+  0.8+
    
    Ephemeris:
    2017 TE5                 a,e,i = 1.82, 0.49, 10                  q = 0.9210
    Date    TT    R. A. (2000) Decl.     Delta      r     Elong.  Phase     V
    2017 09 16    00 38 46.9 -29 53 20   0.2065  1.1870   148.9    26.0    24.1
    ...
    2017 10 01    00 40 26.0 -31 16 37   0.1045  1.0890   145.5    31.4    22.6
    ...
    2017 10 09    00 40 42.2 -30 12 14   0.05339 1.0423   143.4    34.8    21.2
    ...
    2017 10 15    00 42 36.2 -21 37 13   0.01585 1.0108   148.6    30.9    18.4
    2017 10 16    00 44 12.5 -13 39 13   0.0098181.0059   155.5    24.2    17.1
    2017 10 17    00 49 40.8 +15 33 55   0.0045061.0011   168.8    11.1    15.0
    ...
    2017 10 23    12 38 24.3 +39 02 37   0.03484 0.9744    53.0   125.3    23.9
    ...
    2017 10 31    12 40 28.6 +35 07 38   0.08484 0.9462    54.6   121.2    25.5
    ...
    2017 11 15    12 47 19.0 +31 40 14   0.1779  0.9196    62.1   108.0    26.1
    
    A. U. Tomatic                (C) Copyright 2017 MPC           M.P.E.C. 2017-U12
    

    Read MPEC 2017-U11 Read MPEC 2017-U13


    MPEC number:

    Enter an MPEC number in one of the following forms:

    • 1997-B01 (the full form)
    • J97B01 (the packed version of the full form)
    • B01 (the abbreviated form)